UPS5544 KSDF-KMKE

Flight info

Callsign UPS5544
Flight time N/A
Altitude 30000
Route RDHSE1 JIBKA JOT LEEDN GOPAC3
Aircraft A306/H-SDE3FGHIRWY/LB1

Departure

Time N/A
Airport Louisville Muhammad Ali International Airport (KSDF)

Arrival

Time 2026-04-17 05:40
Airport General Mitchell International Airport (KMKE)
Time Latitude Longitude Altitude Speed Heading
2026-04-17 05:24 41.70319 -88.31648 30007 ft 453 kts 356°
2026-04-17 05:25 41.88607 -88.31223 30016 ft 463 kts 11°
2026-04-17 05:25 41.94770 -88.28626 30018 ft 465 kts 14°
2026-04-17 05:26 42.00918 -88.25894 30017 ft 465 kts 14°
2026-04-17 05:26 42.06279 -88.23504 30013 ft 466 kts 14°
2026-04-17 05:27 42.12429 -88.20758 29654 ft 465 kts 14°
2026-04-17 05:27 42.15447 -88.19408 28918 ft 460 kts 14°
2026-04-17 05:27 42.18460 -88.18056 27849 ft 453 kts 14°
2026-04-17 05:28 42.21430 -88.16724 26830 ft 446 kts 14°
2026-04-17 05:28 42.24351 -88.15413 25836 ft 440 kts 14°
2026-04-17 05:28 42.27234 -88.14119 24883 ft 434 kts 15°
2026-04-17 05:28 42.30084 -88.12838 23939 ft 429 kts 15°
2026-04-17 05:29 42.32898 -88.11573 22928 ft 424 kts 15°
2026-04-17 05:29 42.35677 -88.10322 21931 ft 417 kts 15°
2026-04-17 05:29 42.38409 -88.09090 20990 ft 411 kts 15°
2026-04-17 05:29 42.41097 -88.07877 20156 ft 404 kts 15°
2026-04-17 05:30 42.43743 -88.06683 19286 ft 398 kts 15°
2026-04-17 05:30 42.46355 -88.05503 18441 ft 392 kts 15°
2026-04-17 05:30 42.48924 -88.04342 17494 ft 387 kts 15°
2026-04-17 05:30 42.51464 -88.03193 16550 ft 382 kts 15°
2026-04-17 05:31 42.53966 -88.02059 15643 ft 376 kts 16°
2026-04-17 05:31 42.56433 -88.00941 14758 ft 370 kts 16°
2026-04-17 05:31 42.58839 -87.99848 13957 ft 357 kts 16°
2026-04-17 05:31 42.61115 -87.98812 13531 ft 334 kts 16°
2026-04-17 05:32 42.63246 -87.97840 13164 ft 313 kts 16°
2026-04-17 05:32 42.65246 -87.96929 12850 ft 294 kts 16°
2026-04-17 05:32 42.67128 -87.96071 12576 ft 277 kts 15°
2026-04-17 05:32 42.68907 -87.95260 12326 ft 261 kts 15°
2026-04-17 05:33 42.70588 -87.94495 11784 ft 251 kts 15°
2026-04-17 05:33 42.72211 -87.93750 11071 ft 248 kts 17°
2026-04-17 05:33 42.73854 -87.93086 10319 ft 244 kts
2026-04-17 05:33 42.75521 -87.92752 9561 ft 241 kts
2026-04-17 05:34 42.77182 -87.92491 8757 ft 239 kts
2026-04-17 05:34 42.78830 -87.92216 7978 ft 238 kts
2026-04-17 05:34 42.80465 -87.91927 7285 ft 234 kts
2026-04-17 05:34 42.82055 -87.91660 6705 ft 227 kts
2026-04-17 05:35 42.83569 -87.92093 6168 ft 223 kts 329°
2026-04-17 05:35 42.84598 -87.93533 5842 ft 207 kts 296°
2026-04-17 05:35 42.84827 -87.95396 5405 ft 200 kts 261°
2026-04-17 05:35 42.84211 -87.97043 4959 ft 198 kts 226°
2026-04-17 05:36 42.82988 -87.97862 4487 ft 201 kts 191°
2026-04-17 05:36 42.81613 -87.97530 4005 ft 206 kts 155°
2026-04-17 05:36 42.80561 -87.96211 3566 ft 208 kts 128°
2026-04-17 05:36 42.80102 -87.94370 3135 ft 208 kts 91°
2026-04-17 05:37 42.80594 -87.92578 2942 ft 206 kts 46°
2026-04-17 05:37 42.81812 -87.91609 2911 ft 204 kts 14°
2026-04-17 05:37 42.83209 -87.91389 2740 ft 202 kts
2026-04-17 05:37 42.84608 -87.91230 2472 ft 201 kts
2026-04-17 05:38 42.85967 -87.90966 2201 ft 194 kts
2026-04-17 05:38 42.87270 -87.90749 1936 ft 181 kts
2026-04-17 05:38 42.88469 -87.90548 1717 ft 166 kts
2026-04-17 05:38 42.89567 -87.90358 1470 ft 153 kts
2026-04-17 05:39 42.90589 -87.90184 1267 ft 149 kts
2026-04-17 05:39 42.91617 -87.90006 1065 ft 149 kts
2026-04-17 05:39 42.92660 -87.89830 851 ft 149 kts
2026-04-17 05:39 42.93673 -87.89660 699 ft 147 kts
2026-04-17 05:40 42.94584 -87.89504 690 ft 108 kts
2026-04-17 05:40 42.95062 -87.89420 687 ft 36 kts
2026-04-17 05:40 42.95210 -87.89439 685 ft 19 kts 320°
2026-04-17 05:40 42.95184 -87.89549 688 ft 14 kts 195°
2026-04-17 05:41 42.95087 -87.89568 690 ft 14 kts 187°
2026-04-17 05:41 42.94991 -87.89584 690 ft 14 kts 187°
2026-04-17 05:41 42.94895 -87.89600 689 ft 14 kts 187°
2026-04-17 05:41 42.94798 -87.89617 690 ft 14 kts 187°
2026-04-17 05:42 42.94701 -87.89634 688 ft 14 kts 187°
2026-04-17 05:42 42.94604 -87.89651 690 ft 14 kts 188°
2026-04-17 05:42 42.94529 -87.89724 688 ft 13 kts 238°
2026-04-17 05:42 42.94494 -87.89841 690 ft 13 kts 252°
2026-04-17 05:43 42.94467 -87.89963 688 ft 13 kts 252°
2026-04-17 05:43 42.94436 -87.90085 692 ft 14 kts 250°
2026-04-17 05:43 42.94405 -87.90207 691 ft 14 kts 251°
2026-04-17 05:43 42.94376 -87.90332 692 ft 14 kts 253°
2026-04-17 05:44 42.94345 -87.90464 690 ft 18 kts 251°
2026-04-17 05:44 42.94300 -87.90647 689 ft 21 kts 251°
2026-04-17 05:44 42.94254 -87.90832 687 ft 21 kts 252°
2026-04-17 05:44 42.94208 -87.91017 689 ft 21 kts 251°